Vancouver, WA
on Saturday, December 1, 2012

Saturday
Previous Day Next Day
Daily Summary
 ActualAverageRecord
Temperature
Mean Temperature °F 43°F  
Max Temperature 54°F 49°F 61°F (1958)
Min Temperature 47°F 37°F 21°F (1931)
Degree Days
Heating Degree Days 14    
Month to date heating degree days 14  
Since 1 July heating degree days 836  
Cooling Degree Days 0    
Month to date cooling degree days 0  
Year to date cooling degree days 398  
Growing Degree Days1 (Base °F )  
Moisture
Dew Point 44°F   
Average Humidity 80    
Maximum Humidity 93    
Minimum Humidity 66    
Precipitation
Precipitation 0.59 in 0.20 in 1.50 in (1899)
Month to date precipitation 0.59 0.20  
Year to date precipitation 38.91 32.57  
Snow
Snow 0.00 in in in ()
Snow Depth 0.00 in   
Wind
Wind Speed 7 mph   
Max Wind Speed 17 mph   
Max Gust Speed 28 mph   
Visibility 10 miles   
Events Rain   

Key: T is trace of precipitation, MM is missing value
Source: NWS Daily Summary
Time(PST)TemperatureDew PointHumidity Pressure Visibility Wind DirectionWind SpeedGust SpeedPrecipitationEvents Conditions
12:53 AM 51.1°F 46.0°F 83% 29.50 in 4.0 miles South 13.8 mph 26.5 mph 0.16 in Rain Heavy Rain
1:53 AM 50.0°F 45.0°F 83% 29.51 in 10.0 miles South 12.7 mph 27.6 mph 0.06 in   Clear
2:53 AM 51.1°F 45.0°F 80% 29.55 in 10.0 miles South 8.1 mph - 0.00 in   Overcast
3:09 AM 51.8°F 46.4°F 82% 29.56 in 10.0 miles SSE 8.1 mph - N/A   Overcast
3:28 AM 51.8°F 46.4°F 82% 29.57 in 10.0 miles South 8.1 mph 18.4 mph 0.01 in Rain Light Rain
3:53 AM 50.0°F 44.1°F 80% 29.58 in 9.0 miles South 5.8 mph 18.4 mph 0.02 in Rain Light Rain
4:53 AM 48.9°F 44.1°F 83% 29.63 in 10.0 miles Calm Calm - 0.00 in   Scattered Clouds
5:53 AM 48.9°F 44.1°F 83% 29.67 in 10.0 miles SE 5.8 mph - N/A   Mostly Cloudy
6:19 AM 48.2°F 42.8°F 82% 29.68 in 10.0 miles ESE 6.9 mph - N/A   Mostly Cloudy
6:29 AM 48.2°F 42.8°F 82% 29.69 in 10.0 miles ESE 5.8 mph - N/A   Mostly Cloudy
6:53 AM 48.0°F 42.1°F 80% 29.70 in 10.0 miles SE 6.9 mph - N/A   Mostly Cloudy
7:53 AM 48.0°F 42.1°F 80% 29.73 in 10.0 miles SE 5.8 mph - 0.01 in Rain Light Rain
8:53 AM 48.9°F 42.1°F 77% 29.75 in 10.0 miles SE 5.8 mph - 0.00 in   Partly Cloudy
9:53 AM 51.1°F 43.0°F 74% 29.74 in 10.0 miles SE 8.1 mph - N/A   Overcast
10:53 AM 53.1°F 44.1°F 71% 29.74 in 10.0 miles SSE 8.1 mph - N/A   Scattered Clouds
11:37 AM 53.6°F 42.8°F 67% 29.72 in 10.0 miles SE 6.9 mph 18.4 mph N/A   Mostly Cloudy
11:48 AM 53.6°F 44.6°F 72% 29.72 in 10.0 miles SSE 10.4 mph - N/A   Overcast
11:53 AM 54.0°F 43.0°F 66% 29.72 in 10.0 miles SE 5.8 mph 17.3 mph N/A   Overcast
12:06 PM 53.6°F 42.8°F 67% 29.71 in 10.0 miles SSE 11.5 mph 21.9 mph N/A   Mostly Cloudy
12:15 PM 53.6°F 42.8°F 67% 29.70 in 10.0 miles SSE 9.2 mph - N/A   Mostly Cloudy
12:53 PM 54.0°F 42.1°F 64% 29.70 in 10.0 miles South 10.4 mph - N/A   Mostly Cloudy
1:53 PM 54.0°F 42.1°F 64% 29.67 in 10.0 miles SSE 6.9 mph 17.3 mph N/A   Overcast
3:53 PM 51.1°F 43.0°F 74% 29.65 in 10.0 miles SE 6.9 mph - 0.00 in   Overcast
4:53 PM 51.1°F 43.0°F 74% 29.61 in 10.0 miles SE 5.8 mph - N/A   Overcast
5:53 PM 50.0°F 44.1°F 80% 29.58 in 9.0 miles SE 5.8 mph - 0.02 in Rain Light Rain
6:53 PM 48.9°F 46.0°F 90% 29.56 in 8.0 miles Calm Calm - 0.09 in Rain Light Rain
7:12 PM 48.2°F 46.4°F 93% 29.54 in 10.0 miles ESE 6.9 mph - 0.02 in Rain Light Rain
7:53 PM 48.0°F 45.0°F 89% 29.51 in 10.0 miles Variable 4.6 mph - 0.06 in Rain Light Rain
8:23 PM 48.2°F 44.6°F 87% 29.50 in 10.0 miles ESE 10.4 mph - 0.00 in Rain Light Rain
8:53 PM 48.9°F 46.0°F 90% 29.49 in 10.0 miles ESE 10.4 mph - 0.01 in Rain Light Rain
9:53 PM 48.9°F 46.0°F 90% 29.43 in 10.0 miles ESE 9.2 mph - 0.02 in Rain Light Rain
10:53 PM 48.9°F 45.0°F 86% 29.39 in 10.0 miles ESE 9.2 mph - 0.04 in Rain Light Rain
11:53 PM 46.9°F 45.0°F 93% 29.33 in 10.0 miles ESE 12.7 mph - 0.06 in Rain Light Rain
Moon Phase
Dec. 01 Dec. 06 Dec. 13 Dec. 20 Dec. 28
Sunrise:07:31 AM (PST) Moon Rise:07:26 PM (PST)12/1
Sunset:04:28 PM (PST) Moon Set:09:45 AM (PST)12/1

Copyright © 2014 The Weather Underground, Inc.